Regional Weather Roundup
Issued by NWS

Home | Current Version | Previous Version | Text Only | Print | Product List | Glossary Off
Versions: 1 2 3 4 5 6 7 8 9 10 11 12 13 14 15 16 17 18 19 20 21 22 23 24 25 26 27 28 29 30 31 32 33 34 35 36 37 38 39 40 41 42 43 44 45 46 47 48 49 50

000
ASUS43 KBIS 220010
RWRND

NORTH DAKOTA REGIONAL WEATHER ROUNDUP
NATIONAL WEATHER SERVICE BISMARCK ND
700 PM CDT TUE OCT 21 2014

NOTE: "FAIR" INDICATES FEW OR NO CLOUDS BELOW 12,000 FEET WITH NO
SIGNIFICANT WEATHER AND/OR OBSTRUCTIONS TO VISIBILITY.


NDZ001>003-009>011-017-220100-
NORTHWEST NORTH DAKOTA

CITY           SKY/WX    TMP DP  RH WIND       PRES   REMARKS
WILLISTON      CLEAR     71  42  35 CALM      29.57S
6HR MIN TEMP:  62; 6HR MAX TEMP:  75;

MINOT          CLEAR     63  43  48 E3        29.61F
MINOT AFB      CLEAR     59  45  59 SE6       29.61S
$$

NDZ018>021-031>035-040>046-220100-
SOUTHWEST NORTH DAKOTA

CITY           SKY/WX    TMP DP  RH WIND       PRES   REMARKS
BISMARCK       CLEAR     76  47  35 S16       29.66S
6HR MIN TEMP:  71; 6HR MAX TEMP:  83;

DICKINSON      CLEAR     65  46  50 SE9       29.60S
GARRISON         N/A     69  48  47 NE3       29.62S
6HR MIN TEMP:  64; 6HR MAX TEMP:  75;

HETTINGER ARPT CLEAR     69  43  38 S10       29.65S
$$

NDZ004>008-012>016-024-026-027-054-220100-
NORTHEAST NORTH DAKOTA

CITY           SKY/WX    TMP DP  RH WIND       PRES   REMARKS
GRAND FORKS    CLEAR     60  42  51 SE23G30   29.84S
GRND FRKS AFB  CLEAR     60  43  52 SE18G26   29.83S
DEVILS LAKE    CLEAR     63  43  48 SE18      29.72F
$$

NDZ022-023-025-028>030-036>039-047>053-220100-
SOUTHEAST NORTH DAKOTA

CITY           SKY/WX    TMP DP  RH WIND       PRES   REMARKS
FARGO          CLEAR     61  41  47 SE23G36   29.90R
6HR MIN TEMP:  61; 6HR MAX TEMP:  67; 6HR PCP: TRACE;

JAMESTOWN      CLEAR     65  45  48 SE15      29.77S
$$




USA.gov is the U.S. government's official web portal to all federal, state and local government web resources and services.